This demonstration page uses our WeatherBlox Daily Observations layout. Learn more.

Left ArrowRight Arrow

Hourly Observations for July 17, 2016

Temp ( °F °C ) Dew Point ( °F °C ) Humidity (%) Winds ( mph kmh ) Pressure ( in mb ) Visibility ( mi km ) Precip ( " mm )
12:53 am 00:53 Clear 77 25 66 18.9 69 69 S 10 17 29.80 1009 10 16 0.00 0.00
1:53 am 01:53 Clear 76 24.4 64 17.8 67 67 S 14 22 29.81 1009 10 16 0.00 0.00
2:53 am 02:53 Clear 76 24.4 64 17.8 67 67 S 13 20 29.76 1008 10 16 0.00 0.00
3:53 am 03:53 Mostly Clear 76 24.4 64 17.8 67 67 SSW 12 19 29.74 1007 10 16 0.00 0.00
4:53 am 04:53 Clear 89 31.7 48 8.9 24 24 SSW 16 26 29.72 1007 10 16 0.00 0.03
5:53 am 05:53 Clear 77 25 59 15 54 54 SSW 16 26 29.79 1009 10 16 0.00 0.00
6:53 am 06:53 Sunny 75 23.9 59 15 58 58 S 5 7 29.80 1009 10 16 0.00 0.00
7:53 am 07:53 Sunny 77 25 63 17.2 62 62 Calm 29.83 1010 10 16 0.00 0.00
8:53 am 08:53 Sunny 77 25 66 18.9 69 69 ENE 6 9 29.84 1011 10 16 0.00 0.00
9:53 am 09:53 Sunny 80 26.7 67 19.4 64 64 N 6 9 29.87 1011 10 16 0.00 0.00
10:53 am 10:53 Sunny 82 27.8 68 20 63 63 NE 5 7 29.89 1012 10 16 0.00 0.00
11:53 am 11:53 Sunny 85 29.4 68 20 57 57 NE 7 11 29.91 1013 10 16 0.00 0.00
12:53 pm 12:53 Cloudy 83 28.3 67 19.4 59 59 S 3 6 29.92 1013 10 16 0.00 0.00
1:53 pm 13:53 Cloudy 86 30 67 19.4 53 53 S 9 15 29.92 1013 10 16 0.00 0.00
2:53 pm 14:53 Sunny 86 30 68 20 55 55 S 10 17 29.93 1014 10 16 0.00 0.00
3:53 pm 15:53 Mostly Sunny 86 30 67 19.4 53 53 undefined N/A 29.93 1014 10 16 0.00 0.00
4:53 pm 16:53 Sunny 87 30.6 70 21.1 57 57 SE 7 11 29.92 1013 10 16 0.00 0.00
5:53 pm 17:53 Sunny 87 30.6 69 20.6 55 55 Calm 29.93 1014 10 16 0.00 0.00
6:53 pm 18:53 Mostly Sunny 85 29.4 72 22.2 65 65 ENE 8 13 29.94 1014 10 16 0.00 0.00
7:53 pm 19:53 Sunny 83 28.3 72 22.2 70 70 ENE 10 17 29.95 1014 10 16 0.00 0.00
8:53 pm 20:53 Sunny 80 26.7 72 22.2 76 76 ENE 7 11 29.97 1015 10 16 0.00 0.00
9:53 pm 21:53 Clear 79 26.1 71 21.7 77 77 E 8 13 29.97 1015 10 16 0.00 0.00
10:53 pm 22:53 Clear 77 25 69 20.6 77 77 E 8 13 29.98 1015 10 16 0.00 0.00
11:53 pm 23:53 Clear 76 24.4 70 21.1 82 82 NE 7 11 30.01 1016 10 16 0.00 0.00

Powered by AerisWeather